sat.trackr.live / text

‹ back to catalog

STARLINK-36565

NORAD 67544 · 2026-014N

PAYLOAD ACTIVE UNKNOWN

§ Identity

Operator
Country
US
Launch date
2026-01-22
Launch site
AFWTR
Launch vehicle
Mass (kg)
RCS (m²)

Purposes: comms

External: N2YO · Heavens-Above · Gunter

§ Orbital elements

Epoch: 2026-09-19T12:00:20.628864Z

Period
93.91 min
Inclination
97.2848°
Eccentricity
0.0001802
Mean motion
15.33441950 rev/d
Perigee alt
464.3 km
Apogee alt
466.8 km
Semi-major
6,843.7 km
B*
4.8940e-4
RAAN
147.8595°
Arg perigee
92.8640°
Mean anomaly
267.2809°
Rev number
3,848

§ Raw data

STARLINK-365651 67544U 26014N   26262.50023876  .00015756  00000+0  48940-3 0  99992 67544  97.2848 147.8595 0001802  92.8640 267.2809 15.33441950 38487

JSON: /api/v1/satellites/67544 · /tle

For live sub-satellite position, see the globe view (requires WebGL).

§ Visibility from observer

Set your observer location to see the next 7 days of passes ≥ 10°. The values pass through the URL so the page stays shareable.

No JS? Fill the form by hand. The geolocation button needs JavaScript.